Home   Weather   The Settlement   Past weeks

Flag for Christmas Island Past Weather in The Settlement, Christmas Island — Yesterday and Last 2 Weeks

Now
77 °F

Passing clouds.


Feels Like: 78 °F
Forecast: 74 / 81 °F
Wind: No wind

Location: Christmas Island Aerodrome

Current Time: Feb 22, 2017 at 8:14:40 pm

Latest Report: Feb 22, 2017 at 7:30 pm


Visibility: N/A

Pressure: 29.95 "Hg

Humidity: 94%

Dew Point: 75 °F

Location of The SettlementLocation

Past Weather in The Settlement — Graph

°F

The Settlement Temperature Yesterday

Maximum temperature yesterday: 84 °F (at 12:30 pm)
Minimum temperature yesterday: 72 °F (at 2:00 am)
Average temperature yesterday: 77 °F

High & Low Weather Summary for the Past Weeks

 TemperatureHumidityPressure
High84 °F (Feb 19, 2:30 pm)100% (Feb 13, 2:00 am)30.01 "Hg (Feb 13, 2:00 am)
Low70 °F (Feb 13, 2:00 am)62% (Feb 8, 1:00 pm)29.74 "Hg (Feb 8, 3:00 am)
Average77 °F84%29.88 "Hg
* Reported Feb 7 7:00 pm — Feb 22 7:00 pm, The Settlement, Weather by CustomWeather, © 2017

Note: Actual official high and low records may vary slightly from our data, if they occured in-between our weather recording intervals... More about our weather records

Advertising

The Settlement Weather History for the Previous 24 Hours

Scroll right to see more
 ConditionsComfort  
Time TempWeatherWind HumidityBarometerVisibility
7:00 pm
Wed, Feb 22
77 °FPassing clouds.1 mph94%29.92 "HgN/A
6:30 pm79 °FClear.No wind89%29.92 "HgN/A
6:00 pm81 °FSunny.1 mph84%29.92 "HgN/A
5:30 pm81 °FSunny.3 mph79%29.89 "HgN/A
5:00 pm81 °FScattered clouds.5 mph79%29.89 "HgN/A
4:30 pm81 °FSprinkles. Cloudy.1 mph84%29.89 "HgN/A
4:00 pm81 °FRain showers. Cloudy.3 mph84%29.89 "HgN/A
3:30 pm82 °FBroken clouds.6 mph79%29.89 "HgN/A
3:00 pm82 °FBroken clouds.6 mph79%29.89 "HgN/A
2:30 pm81 °FSprinkles. More clouds than sun.5 mph89%29.89 "HgN/A
2:00 pm77 °FSprinkles. More clouds than sun.6 mph89%29.92 "HgN/A
1:30 pm82 °FSprinkles. Mostly cloudy.1 mph79%29.92 "HgN/A
1:00 pm82 °FDrizzle. Cloudy.5 mph79%29.92 "HgN/A
12:30 pm82 °FScattered clouds.1 mph74%29.92 "HgN/A
12:00 pm79 °FLight rain. More clouds than sun.3 mph89%29.95 "HgN/A
11:30 am77 °FLots of rain. Cloudy.7 mph94%29.95 "Hg2 mi
11:12 am79 °FRain showers. Cloudy.5 mph84%29.95 "Hg3 mi
10:30 am82 °FScattered clouds.7 mph74%29.95 "HgN/A
9:30 am81 °FScattered clouds.No wind79%29.95 "HgN/A
9:11 am81 °FScattered clouds.2 mph79%29.95 "HgN/A
8:00 am79 °FPartly sunny.5 mph84%29.95 "HgN/A
7:30 am79 °FPartly sunny.5 mph89%29.92 "HgN/A
7:00 am77 °FSunny.5 mph94%29.92 "HgN/A
6:30 am77 °FSprinkles. Broken clouds.6 mph94%29.92 "HgN/A
6:00 am77 °FSprinkles. Scattered clouds.5 mph94%29.92 "HgN/A
5:30 am77 °FSprinkles. Passing clouds.5 mph94%29.92 "HgN/A
5:00 am77 °FSprinkles. Overcast.3 mph94%29.89 "HgN/A
4:30 am77 °FSprinkles. Overcast.5 mph94%29.89 "HgN/A
4:00 am77 °FSprinkles. Passing clouds.5 mph94%29.89 "HgN/A
3:30 am77 °FLight rain. Overcast.6 mph94%29.89 "HgN/A
3:00 am77 °FPassing clouds.5 mph94%29.89 "HgN/A
2:30 am77 °FClear.6 mph94%29.89 "HgN/A
2:00 am77 °FPassing clouds.5 mph94%29.92 "HgN/A
1:30 am77 °FPassing clouds.3 mph94%29.92 "HgN/A
1:00 am77 °FClear.3 mph94%29.92 "HgN/A
12:30 am77 °FClear.5 mph94%29.95 "HgN/A
12:00 am77 °FClear.5 mph94%29.95 "HgN/A
11:30 pm
Tue, Feb 21
77 °FPassing clouds.5 mph94%29.95 "HgN/A
11:00 pm77 °FPartly cloudy.3 mph94%29.95 "HgN/A
10:31 pm77 °FHeavy rain. Partly cloudy.5 mph94%29.95 "Hg4 mi
10:00 pm77 °FPartly cloudy.3 mph94%29.95 "HgN/A
9:30 pm77 °FPartly cloudy.5 mph94%29.95 "HgN/A
9:00 pm77 °FPassing clouds.6 mph94%29.95 "HgN/A
8:30 pm77 °FClear.5 mph94%29.92 "HgN/A
8:00 pm75 °FClear.5 mph94%29.92 "HgN/A
Weather by CustomWeather, © 2017

See weather overviewHow to use our weather pages